Location: Владивосток
(43.1151°N, 131.8856°E)
Time: 23:33:24
(UTC+10:00)

DUCHIFAT 1 - Pass Details

Date: 28 June 2022
Orbit: 580 x 596 km, 98.0° (Epoch: 08 August)

Event Time Altitude Azimuth Distance (km) Brightness Sun altitude
Rises 02:24:47 0° 37° (NE) 2,838 ? -21.7°
Reaches altitude 10° 02:29:10 10° 81° (E) 1,932 ? -21.5°
Maximum altitude 02:29:44 10° 89° (E) 1,917 ? -21.4°
Drops below altitude 10° 02:30:22 10° 98° (E) 1,935 ? -21.4°
Enters shadow 02:32:11 - 120° (ESE) 2,176 ? -21.3°
